Regional Weather Roundup
Issued by NWS Sioux Falls, SD

Home | Current Version | Previous Version | Text Only | Print | Product List | Glossary Off
Versions: 1 2 3 4 5 6 7 8 9 10 11 12 13 14 15 16 17 18 19 20 21 22 23 24 25 26 27 28 29 30 31 32 33 34 35 36 37 38 39 40 41 42 43 44 45 46 47 48 49 50

372
ASUS43 KFSD 250910
RWRFSD

WEATHER ROUNDUP FOR SE SOUTH DAKOTA/SW MINNESOTA/NW IOWA
NATIONAL WEATHER SERVICE SIOUX FALLS SD
400 AM CDT MON SEP 25 2017

NOTE: "FAIR" INDICATES FEW OR NO CLOUDS BELOW 12,000 FEET WITH NO
SIGNIFICANT WEATHER AND OR OBSTRUCTIONS TO VISIBILITY.


SDZ038>040-050-052>070-251000-
SOUTHEAST SOUTH DAKOTA

CITY           SKY/WX    TMP DP  RH WIND       PRES   REMARKS
BROOKINGS      LGT RAIN  50  48  93 NE6       30.04R
CHAMBERLAIN    CLOUDY    52  49  90 N13       30.07R
HURON          CLOUDY    50  48  93 N6        30.07R
MADISON        LGT RAIN  50  50 100 N7        30.04R
MITCHELL       CLOUDY    52  50  93 N8        30.05F
SIOUX FALLS    RAIN      54  54 100 N10       30.00F
WINNER         CLOUDY    51  48  89 N10       30.06F
YANKTON        RAIN      52  52 100 NW7       30.03R
$$

MNZ071-072-080-081-089-090-097-098-251000-
SOUTHWEST MINNESOTA

CITY           SKY/WX    TMP DP  RH WIND       PRES   REMARKS
FAIRMONT       RAIN      57  55  93 N9        29.99R
JACKSON        FLURRIES  54  54 100 N10       29.98S
LUVERNE        LGT RAIN  54  50  87 N7        30.00S
MARSHALL       RAIN      52  51  97 VRB5      30.05R
MONTEVIDEO     LGT RAIN  52  50  93 N7        30.03R
PIPESTONE      DRIZZLE   52  50  93 N5        30.02F
REDWOOD FALLS  RAIN      53  51  93 N8        29.99F FOG
TRACY          HVY RAIN  53  53  99 NW8       30.04R
WORTHINGTON    LGT RAIN  54  53  97 N14       30.00S
$$

IAZ001>003-012>014-020>022-031-032-NEZ013-014-SDZ071-251000-
NORTHWEST IOWA

CITY           SKY/WX    TMP DP  RH WIND       PRES   REMARKS
CHEROKEE       LGT RAIN  59  59 100 N5        29.97S
DENISON        CLOUDY    63  61  94 CALM      29.94F
ESTHERVILLE    MOCLDY    56  56 100 N8        29.97S
LE MARS        LGT RAIN  57  55  94 VRB5G13   29.97F
ORANGE CITY    RAIN      57  57 100 N10       29.96F
SHELDON        RAIN      57  57 100 N12       29.96F
SIOUX CITY     LGT RAIN  57  57 100 NW9       29.97F
SPENCER        MOCLDY    60  58  92 N8        29.97S
STORM LAKE     CLOUDY    63  61  94 NW6       29.96S
$$

ABBREVIATIONS USED IN REMARKS
   TC - TEMPERATURE IN CELSIUS
  WCI - WIND CHILL INDEX
   HX - HEAT INDEX
  VSB - VISIBILITY





USA.gov is the U.S. government's official web portal to all federal, state and local government web resources and services.